Weather in Yam-Tesovo

Russia / Saint-Petersburg and Leningrad Oblast     58°53′33″N   30°34′44″E
temp.,
°C
wind,
m/s
gust,
m/s
humid.,
%
clouds,
%
prec.,
mm/h
press.,
hPa
HPBL,
m
18 january, mon
mon1800:00−10wsw259698 0.2 1017145
03:00−9wsw249699 0.4 1017125
06:00−10wsw229795 0.3 101744
09:00−10wsw229793 0.4 101746
12:00−8sw129578 0.1 1017110
15:00−8ssw129679 0.1 101854
18:00−10ssw129786 0.1 101721
21:00−11sw129892 0.1 101721
19 january, tue
tue1900:00−11ssw2298100 0.0 101724
03:00−12ssw229792 0.1 101721
06:00−13sw229750 0.0 101621
09:00−14ssw229632 0.0 101730
12:00−12ssw23940 0.0 1016136
15:00−10ssw24946 0.0 1016189
18:00−13ssw239718 0.0 101549
21:00−14ssw239733 0.0 101662
20 january, wed
wed2000:00−15ssw239729 0.0 101549
03:00−15ssw239628 0.0 101677
06:00−15s23960 0.0 101573
09:00−15sse25960 0.0 1015118
12:00−12sse37890 0.0 1014264
15:00−11sse49890 0.0 1013345
18:00−13sse4129226 0.0 1011356
21:00−11sse5138763 0.0 1009436
21 january, thu
thu2100:00−10sse61393100 0.4 1005574
03:00−8sse61393100 2.6 1002722
06:00−7s51294100 2.4 998629
09:00−4s51194100 4.0 995424
12:00+2sw51499100 1.2 995683
15:00+2wsw41199100 1.7 996463
18:00+1nw2699100 0.6 998227
21:00−5nne3696100 1.9 1000223
22 january, fri
fri2200:00−6ene2595100 0.3 1001253
03:00−7e3694100 0.7 1002243
06:00−7ene3595100 1.4 1002204
09:00−6e2495100 1.5 1003171
12:00−4ese2496100 0.0 1003176
15:00−1se3697100 0.0 1003238
18:00−2sse4897100 0.0 1002460
21:00−1ese3697100 0.1 1002258